This is the latest recevied weather packets stored in our database for station/object N2QDK-2. If no packets are shown the sender has not sent any weather packets the latest 10 day(s).
| Time | Temp. | Humidity | Pressure | Rain* | Wind** | Luminosity | Snow |
|---|---|---|---|---|---|---|---|
| 1777576516 | 10.56° C | 65% | 1010.8 hPa | 0 mm | - | - | - |
| 1777575916 | 10° C | 67% | 1010.8 hPa | 0 mm | - | - | - |
| 1777575315 | 10.56° C | 67% | 1010.8 hPa | 0 mm | - | - | - |
| 1777574718 | 10° C | 68% | 1010.8 hPa | 0 mm | - | - | - |
| 1777574118 | 10° C | 70% | 1010.9 hPa | 0 mm | - | - | - |
| 1777573518 | 9.44° C | 68% | 1010.7 hPa | 0 mm | - | - | - |
| 1777572917 | 9.44° C | 65% | 1010.8 hPa | 0 mm | - | - | - |
| 1777572318 | 9.44° C | 70% | 1010.9 hPa | 0 mm | - | - | - |
| 1777571718 | 9.44° C | 72% | 1010.8 hPa | 0 mm | - | - | - |
| 1777571134 | 9.44° C | 70% | 1010.7 hPa | 0 mm | - | - | - |
| 1777570673 | 9.44° C | 68% | 1010.7 hPa | 0 mm | - | - | - |
| 1777569917 | 9.44° C | 75% | 1010.7 hPa | 0 mm | - | - | - |
| 1777569317 | 9.44° C | 75% | 1010.6 hPa | 0 mm | - | - | - |
| 1777568718 | 9.44° C | 75% | 1010.6 hPa | 0 mm | - | - | - |
| 1777568117 | 9.44° C | 75% | 1010.5 hPa | 0 mm | - | - | - |
| 1777567517 | 8.89° C | 73% | 1010.3 hPa | 0 mm | - | - | - |
| 1777566917 | 8.89° C | 74% | 1010.4 hPa | 0 mm | - | - | - |
| 1777566317 | 8.89° C | 73% | 1010.4 hPa | 0 mm | - | - | - |
| 1777565717 | 8.89° C | 73% | 1010.5 hPa | 0 mm | - | - | - |
| 1777565117 | 9.44° C | 74% | 1010.4 hPa | 0 mm | - | - | - |
| 1777564518 | 8.89° C | 77% | 1010.4 hPa | 0 mm | - | - | - |
| 1777563917 | 8.89° C | 74% | 1010.4 hPa | 0 mm | - | - | - |
| 1777563317 | 8.89° C | 73% | 1010.2 hPa | 0 mm | - | - | - |
| 1777562717 | 9.44° C | 74% | 1010.2 hPa | 0 mm | - | - | - |
| 1777562117 | 8.89° C | 76% | 1010.1 hPa | 0 mm | - | - | - |
* Rain latest hour (hover to see other rain measurements)
** Current wind speed in m/s (hover to see current wind gust speed)